timestamp,gas_concentrations,,corrected_fluxes_and_quality_flags,,,,,,,,,,storage_terms,,,turbulence,,,footprint,,
ISOdate,CO2_1_1_1,H2O_1_1_1,Tau_1_1_1,QcTau_1_1_1,H_1_1_1,QcH_1_1_1,LE_1_1_1, QcLE_1_1_1,Fc_1_1_1, QcFc_1_1_1,E_1_1_1, QcE_1_1_1,Sa_1_1_1,Sw_1_1_1,Sc_1_1_1,ustar_1_1_1,MO_length_1_1_1,ZL_1_1_1,Fetchmax_1_1_1,Fetch70_1_1_1,Fetch90_1_1_1
yyyymmddHHMM,[µmol+1mol_a-1],[mmol+1mol_a-1],[kg+1m-1s-2],[#],[W+1m-2],[#],[W+1m-2],[#],[µmol+1s-1m-2],[#],[mmol+1s-1m-2],[#],[W+1m-2],[W+1m-2],[µmol+1s-1m-2],[m+1s-1],[m],[#],[m],[m],[m]
201301120330,-9999.,9.7863433303642307,1.4164484485116426,0,-62.314797377969008,0,-4.3679348291698004,1,-9999.,-9999.,-9.74851734666217079E-002,1,-9999.,-9999.,-9999.,1.1020945095884012,1788.4857217961080,1.20772560478190141E-002,120.48902697666392,220.29236931753340,330.03811176315071
201301120500,-9999.,9.5682333638074066,1.2683697211813014,0,-62.872511504382388,0,-4.3159222815066371,0,-9999.,-9999.,-9.63255319050350250E-002,0,-9999.,-9999.,-9999.,1.0433558143493469,1502.9913878010134,1.43713398328931107E-002,113.34178125050065,207.22492463299741,310.46069842552760
201301120530,-9999.,9.1800990720796865,1.4463901165987219,0,-87.603353822307028,0,-8.4081957812229735,0,-9999.,-9999.,-0.18762870583344426,0,-3.9474185047175423,-13.663137897916826,-9999.,1.1137284864747532,1311.9491627349278,1.64640525818637723E-002,115.60950198114590,211.37104138104854,316.67233683549887
201301120600,-9999.,8.5790534141557266,1.6996057846823776,0,23.997638114762381,1,-13.829444415085501,0,-9999.,-9999.,-0.30835680353487760,0,-19.314492099083630,-21.250104864444957,-9999.,1.2050149419917942,-6067.6490417338737,-3.55986311196200122E-003,103.83362244809248,189.84097787047995,284.41637840542529
201301120630,-9999.,7.7000261537296408,1.7509637127425222,0,-75.156939239861529,0,-3.2173244412346977,2,-9999.,-9999.,-7.16597149591638310E-002,2,-26.179209118123115,-31.263347317794530,-9999.,1.2199135015324905,2010.9344975520876,1.07412747786134761E-002,110.13442100642271,201.36084717173918,301.67524181374250
201301120700,-9999.,7.3048367760282726,1.3910437007494161,0,-103.15747573376638,1,-3.3032772331369356,1,-9999.,-9999.,-7.35319476925750393E-002,1,-13.968990448716314,-14.101217626086990,-9999.,1.0857848727465413,1033.3229905769333,2.09034350314223766E-002,108.64282091441504,198.63372648209943,297.58951807420812
201301120730,-9999.,6.8466528699999145,2.5067617800872291,0,-107.46772413629628,1,-3.6770878564465956,2,-9999.,-9999.,-8.18088833544984434E-002,2,-13.193261342022485,-16.402262719015454,-9999.,1.4554698477453272,2390.0263599669584,9.03755722606281939E-003,111.71100014159754,204.24333665496420,305.99373631796868
201301120800,-9999.,6.4322832393070453,2.1995675085858584,0,-56.269261103005789,0,-0.81655957534078161,0,-9999.,-9999.,-1.81535811091895517E-002,0,-18.187035312656981,-14.898951214418789,-9999.,1.3607874897189705,3732.3820346500179,5.78718893175291307E-003,114.51143551147126,209.36342566414498,313.66456265609548
201301120830,-9999.,5.8416504056282603,2.2773592200924462,0,-76.016482497188377,1,-1.5564245789023794,1,-9999.,-9999.,-3.45709657330430520E-002,1,-22.194784690885669,-21.348399779732524,-9999.,1.3814791707418173,2892.2790971625518,7.46815894122753073E-003,111.26383820517523,203.42578202019928,304.76889049713094
201301120900,-9999.,5.0179311784447425,2.4257128708514553,0,29.129020565159117,0,2.4024410853760134,0,-9999.,-9999.,5.33036949208505195E-002,0,-27.342782296487119,-29.956889566335374,-9999.,1.4219523310230293,-8234.2439836264057,-2.62319164248121361E-003,107.77115956701873,197.04005153693086,295.20190260074827
201301120930,-9999.,4.6821001840697729,2.1382933656916361,0,39.293962935066759,0,2.1743195078141899,0,-9999.,-9999.,4.82049734505707594E-002,0,-19.274951982645515,-12.266223275222421,-9999.,1.3326101398625978,-5025.9306911305966,-4.29771147423861979E-003,105.40677637481740,192.71720498024433,288.72549073305356
201301121000,-9999.,4.6154824944570549,1.9726587604170620,0,68.665657913853551,0,2.3076782962175408,1,-9999.,-9999.,5.11352505856488837E-002,1,-12.855362716726059,-2.4415036223893178,-9999.,1.2780939990711815,-2538.9229686468216,-8.50754444571125666E-003,110.43673265658764,201.91356928559622,302.50332025945653
201301121030,-9999.,4.3173330091465001,2.3580228072124174,0,48.885889197590586,1,1.7270100825618284,2,-9999.,-9999.,3.82382053750240924E-002,2,-19.804000279137949,-10.980248873904893,-9999.,1.3944481864146150,-4634.5454331303099,-4.66065125731451087E-003,113.49561373986266,207.50617948590727,310.88206944653098
201301121100,-9999.,3.9600868746780540,1.5092354624449020,0,61.791404231723902,0,2.1467983121477641,0,-9999.,-9999.,4.75017990760123465E-002,0,-16.475085000294346,-13.208018259555754,-9999.,1.1137133067309770,-1868.7842734864030,-1.15583164447884898E-002,110.20033881415779,201.48136594768539,301.85580090150631
201301121130,-9999.,3.6835760574942404,1.8599862750049678,0,104.33208075832522,0,2.9431754973126290,0,-9999.,-9999.,6.50720888654334195E-002,0,-19.837095796764409,-10.269625543490640,-9999.,1.2339881030902511,-1506.1546064907959,-1.43411572138175437E-002,103.32096326925273,188.90367338730189,283.01212549038524
201301121200,-9999.,3.5546908163866284,1.1540102003109602,0,76.551228478429351,0,2.1139236379792168,0,-9999.,-9999.,4.67149099208780186E-002,0,-12.426512064723944,-4.8033028031107783,-9999.,0.97053089806167681,-999.39378004208095,-2.16131022939631476E-002,107.78486755134311,197.06511410421322,295.23945089353498
201301121230,-9999.,3.4052133733702195,1.0159978025540521,0,113.19008227403418,0,2.9428583093743539,0,-9999.,-9999.,6.49977902784964617E-002,0,-13.907272204674131,-5.5873606107390623,-9999.,0.90951527095114282,-556.35951357191482,-3.88238171058217993E-002,94.251818296801375,172.32238392222513,258.17033236515880
201301121300,-9999.,3.2921551292818911,1.2362701243729401,0,72.967756628052129,0,1.7634381915040660,0,-9999.,-9999.,3.89365979820187197E-002,0,-7.7323877701601935,-4.2346633674929777,-9999.,1.0023835607397085,-1155.7453133763870,-1.86892386670363363E-002,105.14696842758650,192.24219319121141,288.01383651460134
201301121330,-9999.,3.2323402380698689,0.96819863450810018,0,60.839195658143026,0,1.5292644930832626,0,-9999.,-9999.,3.37629063704687205E-002,0,-2.3870530166015689,-2.2427938995431749,-9999.,0.88663146197171361,-959.66548715386409,-2.25078428776889564E-002,104.79333552462465,191.59563945916753,287.04518120648396
201301121400,-9999.,3.2238234090260205,0.82569537345519406,0,66.044767471635012,0,1.6398062770985276,0,-9999.,-9999.,3.62017953303396742E-002,0,-1.1583003752981684,-0.31961821465233387,-9999.,0.81845194845599034,-695.68285400271577,-3.10486306737634207E-002,107.88334901862142,197.24516963545099,295.50920688974276
201301121430,-9999.,3.1015318817747390,1.1137141280815956,0,74.509642084265693,0,1.9255967198773287,0,-9999.,-9999.,4.24990802594791550E-002,0,-7.2873042940272326,-4.6006888714276570,-9999.,0.94947887271363784,-963.45673125207418,-2.24192735380336246E-002,106.21880302242626,194.20184867468944,290.94975752483452
201301121500,-9999.,2.9879047981412294,1.2180808698599563,0,42.959869444763491,0,1.1944556490965226,0,-9999.,-9999.,2.63574535916631381E-002,0,-4.7788728239643801,-4.2815705555689227,-9999.,0.99224786496541473,-1908.0374499718819,-1.13205325190647143E-002,112.30639639449417,205.33191089715459,307.62461889696834
201301121530,-9999.,2.9237646842000613,1.1668682947127653,0,41.149400690916359,0,1.1309408311097329,0,-9999.,-9999.,2.49483489718502795E-002,0,-7.7950599757355929,-2.4217366643638525,-9999.,0.97032123216206334,-1863.4797236676161,-1.15912181526117517E-002,117.86926435407071,215.50260771299867,322.86217607071791
201301121600,-9999.,2.7958767498849411,0.75033740334245058,0,64.263203449147937,0,1.5105389294826399,0,-9999.,-9999.,3.33035453259400149E-002,0,-14.472377406204592,-4.8444072335859056,-9999.,0.77702886035384955,-612.94619771088117,-3.52396345399771035E-002,95.525914589135013,174.65183829678176,261.66027950040842
201301121630,-9999.,2.7044577788484991,1.1064148926154567,0,35.407821227024236,0,0.91481899553530122,0,-9999.,-9999.,2.01599622001375420E-002,0,-12.165403067864673,-3.4726637670771670,-9999.,0.94244210241202564,-1985.4992213861772,-1.08788760868513221E-002,107.15266867067558,195.90925292086152,293.50776021538962
201301121700,-9999.,2.6546711270901291,0.92841346709149308,0,31.631945760973981,0,0.83146926678091215,0,-9999.,-9999.,1.83166247962226192E-002,0,-9.2781234022488785,-1.8947421433259859,-9999.,0.86264984484227958,-1704.5182496825314,-1.26722022507080971E-002,111.65822720875924,204.14685090267210,305.84918307902910
201301121730,-9999.,2.5955819731888705,0.70878159410738584,0,21.939739441728200,0,0.59235430583479731,0,-9999.,-9999.,1.30458628189982218E-002,0,-6.4641856814762537,-2.2529074957393842,-9999.,0.75313007352264272,-1635.9914086579101,-1.32030033199988621E-002,106.48665464695215,194.69156687121688,291.68344462157182
201301121800,-9999.,2.5376753373203460,0.67755415916787076,0,25.247093776300918,0,0.63740091250304098,0,-9999.,-9999.,1.40347018205940529E-002,0,-6.0446933102726685,-2.2129493719350131,-9999.,0.73557611676477863,-1325.6462660993186,-1.62939394560793864E-002,109.97385853348483,201.06728776243446,301.23543632507585
201301121830,-9999.,2.5298800665808292,0.39882990536442542,0,21.399995592052377,0,0.57172679039821728,0,-9999.,-9999.,1.25848559927259698E-002,0,-7.8630530904987115,-0.29849161764589521,-9999.,0.56387823750235122,-704.75842381553639,-3.06488000286089385E-002,103.45529050501710,189.14926641575366,283.38006859991526
201301121900,-9999.,2.5876031552007932,0.46091194069142827,0,10.735533727877989,0,0.49983835409043120,0,-9999.,-9999.,1.09985111153664376E-002,0,-9.3591015872724022,2.2146421020808851,-9999.,0.60569831559024023,-1741.3946723655431,-1.24038509723118414E-002,109.31672593566543,199.86583979192793,299.43544833277235
201301121930,-9999.,2.5070955988366697,0.49490194048438535,0,18.326977629719931,0,0.89376861855827472,0,-9999.,-9999.,1.96599428270310544E-002,0,-8.8798512085076222,-3.0942468712317557,-9999.,0.62717937952143865,-1132.5204678431392,-1.90725029818990706E-002,108.75613535026336,198.84090141061588,297.89990386934062
201301122000,-9999.,2.3211184546801800,0.45400914744309062,0,13.106244264177818,0,0.58187939282942380,0,-9999.,-9999.,1.27961654745294452E-002,0,-6.6648871990488665,-7.1597080693673973,-9999.,0.60026861464887005,-1388.7431303460980,-1.55536322938403439E-002,109.87372336969692,200.88420874655768,300.96115059792783
201301122030,-9999.,2.2319859251071055,0.33245027243446257,0,14.285316506529048,0,0.38686445000078551,0,-9999.,-9999.,8.50566130054097522E-003,0,-5.9066656094586136,-3.4357570897797749,-9999.,0.51338469986221025,-797.14376564347890,-2.70967433114951591E-002,103.45441867444794,189.14767243141713,283.37768052091712
201301122100,-9999.,2.1985770506427511,0.17315590040863238,0,4.8198195992419386,0,0.12234536853752477,1,-9999.,-9999.,2.68962207859730316E-003,1,-2.7573496980588619,-1.2886214140637309,-9999.,0.37040735695456067,-887.43581427248910,-2.43397884698934135E-002,84.670818922803903,154.80526136353365,231.92649073458040
201301122130,-9999.,2.2609050902701959,0.29041975342510379,0,7.7187825179790357,0,0.21155458344404884,0,-9999.,-9999.,4.65064278815887841E-003,0,-0.79886280507648044,2.4055226120737951,-9999.,0.47957276130691873,-1203.0609736699446,-1.79542022164588012E-002,114.07441149943917,208.56440638849051,312.46748618078982
201301122200,-9999.,2.3334732006357508,0.27504444846842613,0,9.0881387559659412,1,0.46395037219691432,1,-9999.,-9999.,1.01971234847137975E-002,1,-5.1196267973569451,2.8041301143575210,-9999.,0.46647443625874696,-940.49635291584593,-2.29665962372240413E-002,117.71440493490918,215.21947530489285,322.43799212989558
201301122230,-9999.,2.2100735233011735,0.27561480785392939,0,8.9410833378070738,0,0.28798583984736875,0,-9999.,-9999.,6.32881485799406587E-003,0,-3.3326667080022268,-4.7719283936227752,-9999.,0.46680039280740254,-958.02945063455707,-2.25462797471341833E-002,111.66637026940627,204.16173901463088,305.87148818371253
201301122300,-9999.,2.1505535228879338,0.27799861949831639,0,3.6569007824931852,2,0.10536800757538126,2,-9999.,-9999.,2.31523068466468144E-003,2,-3.9947007967001613,-2.3032523121510340,-9999.,0.46868375118888050,-2370.6806352287185,-9.11130739375870351E-003,103.62071536158624,189.45171581311405,283.83319291065720
201301122330,-9999.,2.0756769818426668,0.47024152608305714,0,8.8988908809611118,1,0.24903983126014118,0,-9999.,-9999.,5.47097588943193033E-003,0,-5.4453860342536258,-2.9015096528718063,-9999.,0.60919712196114884,-2139.8482212171962,-1.00941738698240059E-002,120.17964602327739,219.72672226274861,329.19066940069433
201301130000,-9999.,2.0566227289996171,0.23605111198454956,0,4.6663400388033871,1,0.13014232367016798,0,-9999.,-9999.,2.85848585559292422E-003,0,-4.7803027455217411,-0.73915388707622909,-9999.,0.43142540358390802,-1449.5459749677862,-1.49012176040018516E-002,98.455105660851160,180.00733379345542,269.68378765347796
